Vorticity
9 7 5 6 6 -0 7 2 -25 5 -6 10 -1 4 -6 -1 5 13 10 4 8 8 3 3 4 5 3 4 4 4 4 3 3 3 3 4 4 4 4 4 4 5 5 5 5 6 6 6 6
9 5 6 7 0 -2 -5 54 30 31 12 -2 -13 -1 2 10 8 14 6 5 8 6 4 4 5 5 5 4 4 2 3 4 3 3 3 4 4 3 3 3 2 3 3 4 4 4 4 4 5
8 5 3 4 11 4 22 -1 3 2 -1 1 9 -6 -1 13 10 12 11 10 9 6 5 6 5 5 6 5 4 3 2 3 3 3 3 4 4 3 3 3 3 3 3 3 3 3 3 3 4
12 8 2 5 -10 9 10 -8 -3 -7 -3 3 12 13 5 6 7 12 9 7 7 7 6 5 5 7 7 5 4 3 3 3 4 4 3 3 3 3 3 3 4 4 4 4 4 3 3 3 2
4 6 1 6 6 3 27 30 -0 3 9 7 5 4 4 -7 8 11 7 8 7 9 8 6 6 7 7 5 4 4 4 4 5 5 4 4 4 4 4 5 5 5 5 5 5 5 5 4 4
6 -5 5 3 3 15 20 4 2 5 -0 4 -6 5 2 -1 10 8 6 8 6 6 6 6 7 8 7 6 5 4 4 4 5 5 4 4 4 4 4 4 5 4 4 4 4 4 4 4 4
-3 1 2 9 2 50 12 3 -4 13 17 9 12 8 9 4 6 5 13 4 5 6 5 6 7 9 7 6 5 4 4 4 6 5 4 4 4 3 3 4 4 4 4 4 4 4 4 4 4
-1 -4 6 -9 -3 26 29 10 30 0 -14 11 6 -4 -3 7 2 -6 14 4 4 4 6 7 6 8 8 7 6 4 4 4 5 4 3 3 3 4 4 3 3 3 4 4 4 5 5 4 4
1 -1 13 -13 -10 15 8 11 11 2 17 5 3 -3 -2 -1 9 7 8 11 9 5 8 6 5 7 7 6 6 5 4 3 4 4 3 3 3 4 4 3 4 3 3 3 4 5 6 6 5
1 6 10 -3 -8 5 11 11 4 14 9 0 8 1 -4 3 10 7 -2 7 6 6 9 6 5 7 6 7 6 6 5 4 3 3 3 3 4 4 4 6 7 7 5 4 4 5 6 7 7
4 10 -6 6 -0 3 10 6 3 6 8 26 3 13 7 -2 4 3 4 13 9 8 7 7 4 6 4 5 7 7 7 6 4 4 3 3 4 5 7 3 6 7 7 7 5 5 7 6 6
3 3 1 -4 -9 10 12 8 -1 6 -10 3 -0 21 5 1 10 11 6 4 9 12 10 5 7 5 2 9 9 8 6 7 8 6 5 5 5 4 11 -1 6 12 8 8 7 7 7 8 6
1 3 1 1 6 6 -1 8 20 -2 8 -5 7 -2 11 8 12 3 5 -4 5 5 8 8 6 6 7 9 7 3 4 3 3 4 7 7 6 5 6 4 8 7 7 11 8 6 8 6 9
6 2 4 -1 2 -1 1 -0 5 10 10 -6 -1 4 1 5 10 1 -6 10 16 16 5 6 6 5 5 12 2 5 7 8 9 5 3 4 6 6 6 5 8 9 5 6 7 5 2 5 11
5 6 0 5 0 13 -2 -9 -6 1 3 7 10 7 2 0 3 -3 -6 1 13 17 13 5 17 5 3 9 4 4 4 6 8 8 7 5 5 6 6 5 6 11 1 5 6 1 4 11 8
7 17 10 6 -1 -2 -2 4 4 5 9 13 5 3 11 -0 1 2 0 6 7 12 8 2 -1 4 9 6 5 5 4 5 3 8 9 8 7 6 5 5 8 11 0 6 -2 8 12 8 5
19 -5 3 12 8 12 3 10 10 13 3 2 -11 26 -3 12 7 1 -1 7 -7 4 7 12 6 2 2 4 9 7 5 4 4 3 9 12 9 7 5 3 10 8 2 8 9 10 9 7 5
-5 1 2 -6 -2 -6 -5 -5 -4 8 -1 -2 8 8 10 -4 26 6 0 13 6 -4 8 8 7 3 4 4 1 6 6 5 4 5 6 15 9 7 5 9 7 4 5 5 10 8 5 6 5
9 -10 -3 5 13 22 17 14 14 7 4 -2 -5 5 4 24 9 11 7 10 5 4 -3 3 7 10 5 7 -1 1 8 8 8 6 6 14 10 7 6 6 9 12 12 8 6 7 8 6 3
10 8 4 6 6 -0 1 4 2 2 1 0 28 2 6 -0 8 -3 -2 11 -1 -5 4 14 -4 5 5 6 7 -0 9 2 7 9 3 9 9 6 4 4 6 12 11 11 13 8 6 5 2
6 2 3 4 7 10 4 28 13 11 3 -3 -6 18 12 5 4 2 5 7 16 9 9 7 11 14 7 6 5 3 3 -3 -9 13 7 7 10 5 4 3 4 7 11 10 9 6 5 3 3
14 10 9 7 4 1 11 2 10 -1 16 15 3 -3 3 25 10 12 7 -1 1 8 8 1 7 9 8 10 3 5 3 5 11 2 16 9 8 3 8 6 4 6 9 10 7 5 5 5 4
-1 13 11 13 9 12 7 20 15 -4 10 15 10 19 1 0 4 8 4 22 15 4 7 -0 4 8 6 6 7 8 9 9 4 10 17 12 5 6 4 3 5 7 8 8 9 6 5 4 3
13 10 15 8 18 43 8 6 31 9 4 6 2 4 8 7 11 2 16 11 17 11 10 11 9 -1 4 7 3 5 6 13 3 6 23 12 6 5 3 2 1 3 8 8 7 5 4 3 2
-9 7 38 42 33 -14 -1 27 -5 -13 5 8 29 48 39 38 11 4 -11 -1 3 1 19 7 8 7 5 7 6 9 7 9 12 -1 25 16 12 3 3 4 4 7 7 9 8 5 4 4 5
12 -8 -36 26 23 13 41 25 4 4 1 2 11 -9 -26 -24 -28 17 2 23 30 2 8 11 12 8 7 12 13 4 9 16 0 0 22 19 9 7 8 4 4 5 8 8 8 8 6 3 5
9 30 27 -11 0 29 17 1 34 6 1 -3 -12 6 9 6 1 19 0 13 14 10 16 20 17 8 -2 12 12 6 11 15 4 6 9 28 10 7 5 3 4 7 8 8 7 7 -6 10 3
10 11 15 22 21 24 14 9 -37 -4 -1 21 11 8 5 22 33 11 24 31 17 7 14 3 6 11 11 8 13 8 15 8 5 4 4 24 22 10 2 5 6 8 9 8 6 -9 19 10 6
19 1 16 24 4 -4 17 24 40 50 50 35 47 45 0 -12 -18 -31 -0 12 29 14 2 15 4 4 3 7 13 8 14 4 2 9 9 -4 25 30 7 6 10 9 8 6 1 19 8 -2 7
30 21 16 18 21 6 -11 6 7 -8 -20 -6 10 7 8 31 32 21 19 7 18 13 11 8 5 7 7 -2 9 19 8 12 2 16 11 13 46 11 7 6 8 12 7 8 8 -4 7 6 2
Height
3170 3171 3171 3173 3178 3174 3173 3175 3175 3180 3181 3175 3176 3175 3177 3176 3177 3182 3180 3181 3182 3183 3186 3188 3190 3191 3190 3190 3190 3191 3190 3190 3190 3190 3191 3191 3191 3190 3190 3190 3190 3190 3189 3188 3187 3186 3185 3184 3184
3169 3171 3171 3173 3175 3173 3172 3170 3170 3173 3178 3176 3175 3174 3175 3177 3179 3179 3180 3180 3180 3183 3186 3188 3189 3190 3190 3190 3191 3191 3191 3191 3191 3191 3192 3192 3192 3192 3192 3191 3191 3191 3190 3189 3188 3187 3186 3186 3185
3169 3170 3173 3172 3172 3173 3174 3173 3173 3173 3175 3175 3174 3175 3175 3177 3178 3179 3179 3180 3180 3183 3185 3188 3189 3189 3190 3190 3190 3191 3192 3192 3192 3192 3192 3192 3192 3192 3192 3192 3192 3192 3191 3191 3190 3189 3189 3188 3187
3170 3171 3173 3171 3171 3173 3173 3174 3176 3174 3172 3172 3172 3173 3177 3178 3178 3179 3179 3179 3180 3183 3185 3187 3188 3189 3189 3190 3190 3191 3192 3192 3192 3192 3191 3191 3192 3192 3192 3192 3193 3192 3192 3191 3190 3190 3189 3188 3188
3169 3170 3171 3171 3171 3172 3171 3171 3174 3173 3171 3171 3171 3172 3175 3178 3178 3178 3179 3180 3181 3183 3184 3186 3187 3188 3188 3189 3190 3191 3192 3193 3193 3192 3192 3192 3191 3191 3192 3192 3192 3193 3193 3192 3191 3190 3189 3189 3188
3171 3170 3171 3170 3170 3169 3168 3171 3172 3171 3169 3169 3170 3171 3173 3176 3178 3179 3180 3180 3181 3183 3184 3185 3186 3186 3187 3188 3189 3190 3191 3192 3193 3192 3191 3192 3192 3192 3191 3192 3193 3192 3192 3191 3191 3190 3189 3188 3187
3170 3170 3170 3171 3169 3165 3167 3170 3170 3168 3169 3168 3169 3169 3172 3175 3178 3179 3180 3180 3182 3182 3183 3184 3184 3185 3185 3186 3188 3190 3191 3192 3192 3192 3192 3192 3192 3192 3192 3192 3192 3192 3191 3191 3190 3189 3188 3188 3187
3170 3169 3169 3170 3169 3168 3168 3171 3169 3169 3168 3168 3168 3169 3171 3174 3177 3178 3179 3179 3181 3181 3182 3182 3183 3183 3184 3185 3187 3188 3190 3191 3191 3191 3191 3191 3191 3192 3191 3191 3191 3190 3190 3189 3188 3188 3187 3187 3186
3168 3168 3168 3170 3169 3169 3171 3171 3170 3168 3166 3166 3167 3169 3171 3172 3175 3177 3179 3179 3179 3179 3179 3180 3181 3181 3183 3184 3186 3187 3187 3188 3189 3190 3190 3191 3191 3191 3191 3190 3189 3189 3188 3187 3186 3186 3185 3185 3184
3165 3165 3166 3168 3169 3169 3170 3169 3169 3168 3168 3167 3167 3168 3170 3171 3173 3174 3175 3177 3177 3177 3177 3178 3179 3180 3181 3183 3184 3185 3186 3187 3187 3188 3189 3189 3190 3189 3188 3188 3187 3187 3186 3184 3183 3183 3182 3182 3182
3161 3160 3164 3165 3166 3169 3168 3167 3166 3166 3165 3167 3167 3167 3166 3168 3169 3170 3172 3173 3174 3175 3175 3176 3177 3178 3180 3181 3182 3183 3184 3184 3185 3185 3186 3186 3187 3187 3186 3185 3185 3184 3183 3182 3181 3180 3180 3180 3179
3158 3157 3160 3160 3163 3165 3165 3165 3164 3163 3165 3164 3163 3163 3164 3164 3166 3168 3170 3171 3171 3172 3173 3174 3175 3176 3177 3178 3179 3180 3181 3181 3182 3182 3182 3183 3184 3184 3184 3183 3182 3181 3179 3179 3178 3178 3178 3178 3178
3153 3155 3155 3156 3158 3160 3162 3161 3161 3161 3162 3161 3162 3161 3162 3163 3164 3166 3168 3169 3169 3169 3169 3171 3172 3173 3174 3175 3176 3178 3178 3179 3179 3179 3179 3179 3179 3179 3180 3180 3178 3177 3177 3177 3176 3176 3176 3176 3176
3151 3148 3150 3151 3153 3155 3157 3157 3156 3158 3160 3160 3159 3159 3158 3160 3162 3164 3164 3165 3167 3166 3166 3168 3169 3170 3171 3172 3173 3175 3175 3175 3175 3175 3175 3175 3175 3175 3175 3175 3175 3174 3173 3173 3174 3173 3174 3173 3174
3146 3146 3146 3148 3150 3151 3152 3151 3152 3155 3157 3156 3156 3156 3156 3157 3159 3160 3162 3161 3162 3164 3165 3165 3167 3167 3168 3169 3170 3170 3171 3171 3171 3171 3171 3171 3171 3171 3170 3169 3169 3170 3170 3170 3170 3172 3170 3171 3170
3143 3142 3141 3145 3147 3147 3149 3142 3148 3152 3152 3152 3153 3152 3152 3153 3152 3155 3156 3159 3158 3159 3160 3162 3163 3164 3164 3166 3167 3167 3167 3167 3167 3166 3166 3166 3167 3166 3165 3165 3165 3165 3165 3167 3167 3167 3167 3167 3167
3135 3135 3138 3140 3144 3144 3144 3137 3142 3146 3146 3147 3147 3148 3147 3147 3146 3147 3151 3154 3156 3154 3155 3155 3157 3159 3159 3160 3161 3163 3162 3163 3163 3162 3162 3162 3162 3162 3161 3161 3162 3161 3161 3163 3163 3163 3164 3164 3164
3129 3131 3131 3131 3136 3140 3137 3131 3136 3138 3139 3140 3140 3141 3142 3141 3140 3143 3142 3144 3146 3148 3147 3148 3149 3152 3153 3154 3155 3156 3157 3158 3157 3157 3157 3156 3157 3157 3157 3157 3157 3157 3158 3159 3159 3159 3159 3160 3161
3127 3127 3125 3125 3131 3133 3128 3125 3128 3130 3129 3131 3132 3134 3136 3135 3136 3138 3138 3137 3139 3141 3142 3142 3141 3143 3144 3146 3147 3149 3150 3151 3151 3152 3152 3152 3152 3152 3153 3154 3153 3153 3154 3154 3154 3154 3156 3157 3157
3120 3121 3115 3119 3125 3129 3122 3119 3120 3123 3121 3123 3125 3125 3129 3131 3132 3135 3137 3134 3134 3135 3135 3137 3137 3137 3138 3139 3141 3141 3142 3144 3145 3146 3146 3146 3147 3147 3148 3149 3149 3148 3149 3150 3150 3150 3151 3152 3152
3111 3114 3113 3114 3120 3120 3118 3112 3109 3112 3114 3117 3118 3120 3122 3125 3127 3129 3130 3129 3128 3128 3130 3131 3132 3132 3132 3133 3134 3135 3136 3137 3137 3139 3140 3140 3141 3142 3143 3143 3144 3144 3144 3144 3145 3145 3146 3146 3146
3103 3109 3110 3110 3114 3111 3116 3105 3099 3100 3105 3107 3112 3113 3115 3118 3120 3121 3123 3122 3119 3120 3123 3124 3124 3125 3126 3126 3125 3126 3128 3129 3131 3132 3134 3134 3134 3136 3137 3138 3139 3139 3139 3139 3140 3140 3140 3140 3139
3097 3105 3105 3106 3106 3108 3106 3106 3074 3093 3095 3098 3101 3105 3108 3111 3113 3114 3115 3116 3113 3112 3112 3115 3116 3118 3118 3116 3117 3119 3120 3122 3124 3124 3126 3127 3126 3128 3130 3133 3133 3134 3133 3133 3133 3134 3134 3133 3132
3096 3096 3097 3098 3097 3097 3087 3102 3076 3080 3084 3088 3092 3094 3097 3102 3103 3103 3105 3108 3106 3104 3103 3105 3106 3109 3108 3107 3109 3111 3111 3113 3116 3117 3117 3119 3120 3121 3123 3125 3126 3127 3127 3127 3127 3127 3127 3127 3125
3092 3093 3091 3089 3089 3080 3084 3095 3081 3071 3078 3082 3084 3084 3086 3091 3093 3094 3096 3097 3096 3093 3091 3094 3097 3100 3099 3099 3100 3102 3103 3105 3107 3108 3108 3110 3112 3113 3115 3117 3119 3120 3120 3120 3121 3120 3120 3119 3118
3085 3088 3087 3087 3085 3080 3079 3076 3070 3070 3072 3075 3076 3078 3081 3081 3084 3085 3086 3087 3085 3085 3081 3084 3086 3088 3089 3091 3090 3094 3095 3097 3099 3100 3100 3102 3103 3105 3107 3109 3110 3111 3112 3112 3112 3112 3112 3112 3111
3077 3078 3079 3079 3075 3074 3067 3064 3065 3055 3056 3066 3068 3070 3070 3071 3072 3071 3070 3071 3072 3071 3072 3073 3075 3078 3079 3081 3082 3083 3086 3088 3090 3091 3091 3093 3095 3096 3098 3100 3102 3103 3104 3104 3104 3104 3104 3103 3102
3072 3074 3073 3072 3068 3064 3054 3056 3051 3043 3050 3054 3057 3061 3062 3061 3059 3060 3059 3059 3060 3060 3062 3064 3065 3067 3071 3073 3073 3074 3078 3080 3081 3081 3082 3083 3086 3086 3088 3090 3092 3095 3096 3096 3095 3095 3094 3095 3093
3064 3064 3067 3068 3067 3061 3053 3044 3047 3042 3049 3048 3047 3052 3056 3053 3052 3050 3048 3048 3047 3048 3049 3054 3056 3059 3061 3063 3063 3068 3069 3069 3071 3072 3072 3073 3074 3075 3078 3081 3084 3085 3086 3086 3085 3084 3084 3084 3085
3057 3057 3058 3060 3059 3055 3050 3039 3043 3043 3044 3042 3039 3039 3038 3038 3041 3041 3038 3038 3037 3037 3039 3044 3048 3050 3053 3053 3056 3059 3060 3061 3061 3062 3064 3064 3063 3066 3069 3071 3074 3076 3076 3076 3074 3073 3072 3073 3075